Regional Weather Roundup
Issued by NWS

Home | Current Version | Previous Version | Graphics & Text | Print | Product List | Glossary On
Versions: 1 2 3 4 5 6 7 8 9 10 11 12 13 14 15 16 17 18 19 20 21 22 23 24 25 26 27 28 29 30 31 32 33 34 35 36 37 38 39 40 41 42 43 44 45 46 47 48 49 50
000
ASUS43 KIND 181900
RWRIN

WEATHER ROUNDUP FOR INDIANA
NATIONAL WEATHER SERVICE INDIANAPOLIS IN
300 PM EDT WED OCT 18 2017

NOTE: "FAIR" INDICATES FEW OR NO CLOUDS BELOW 12,000 FEET WITH NO
SIGNIFICANT WEATHER AND/OR OBSTRUCTIONS TO VISIBILITY.

* - STATION DOES NOT REPORT WEATHER SUCH AS PRECIPITATION OR FOG.

+ - STATION NOT QUALITY CONTROLLED BY THE NATIONAL WEATHER SERVICE.
    USE DATA WITH CAUTION...ESPECIALLY DEWPOINT AND RELATIVE
    HUMIDITY OBSERVATIONS.

INZ001>003-010>013-019-020-182000-
NORTHWEST INDIANA

CITY           SKY/WX    TMP DP  RH WIND       PRES   REMARKS
GARY /AIRPORT/ SUNNY     70  37  30 S12G25    30.11F
MICHIGAN CITY+ SUNNY     68  41  37 S15G22    30.12F
MONTICELLO +   SUNNY     68  38  33 S12G20    30.16F
RENSSELAER +   SUNNY     68  23  18 S15G21    30.15F

$$

LMZ046-743>745-182000-
SOUTHERN LAKE MICHIGAN

STATION/POSITION TIME  TEMP    WIND        PRES    WAVE
                       AIR SEA DIR/SP/G            HT
                 (UTC) (F)     (DEG/KT/KT) (MB)    (FT)
BURNS HARBOR     1840   67     190/ 20/ 24 1020.0F
MICHIGAN CITY    1830   65     170/ 18/ 22   N/A
5NW MICH CITY    1850   64 58  200/ 16/ 19   N/A     2

$$

INZ004-005-014>016-021>024-182000-
NORTH CENTRAL INDIANA

CITY           SKY/WX    TMP DP  RH WIND       PRES   REMARKS
ELKHART        SUNNY     66  39  37 SW14G21   30.15F
GOSHEN         SUNNY     67  38  34 S18G25    30.15F
PERU/GRISSOM   SUNNY     69  42  37 S14       30.17F
SOUTH BEND     SUNNY     66  40  38 S18G25    30.14F

$$

INZ006>009-017-018-025>027-182000-
NORTHEAST INDIANA

CITY           SKY/WX    TMP DP  RH WIND       PRES   REMARKS
FORT WAYNE     MOSUNNY   67  41  38 S14G21    30.19F
KENDALLVILLE + SUNNY     68  41  37 SW15      30.18F

$$

INZ028-029-035-036-043>045-051>053-182000-
WEST CENTRAL INDIANA

CITY           SKY/WX    TMP DP  RH WIND       PRES   REMARKS
GREENCASTLE +  SUNNY     66  43  42 S12       30.21F
LAFAYETTE      SUNNY     67  42  40 S12G20    30.16F
TERRE HAUTE    SUNNY     69  45  41 S14       30.19F

$$

INZ030>032-037>040-046>048-054>057-064-065-182000-
CENTRAL INDIANA

CITY           SKY/WX    TMP DP  RH WIND       PRES   REMARKS
COLUMBUS       SUNNY     68  36  30 S12       30.23F
INDIANAPOLIS   MOSUNNY   68  45  43 S12       30.21F
-EAGLE CREEK   SUNNY     67  42  40 SW8G18    30.20F
KOKOMO +       SUNNY     68  41  37 S16G22    30.19F
MT COMFORT *+  SUNNY     68  48  49 SW12G17   30.22F
SHELBYVILLE    SUNNY     69  41  36 S9        30.22F

$$

INZ033-034-041-042-049-050-058-059-182000-
EAST CENTRAL INDIANA

CITY           SKY/WX    TMP DP  RH WIND       PRES   REMARKS
MUNCIE         SUNNY     70  38  31 SW12      30.21F
RICHMOND +     SUNNY     66  41  39 SW13      30.24F

$$

INZ060-061-067>069-081>083-085>088-182000-
SOUTHWEST INDIANA

CITY           SKY/WX    TMP DP  RH WIND       PRES   REMARKS
EVANSVILLE     SUNNY     69  45  41 S7G16     30.22F
HUNTINGBURG +  SUNNY     69  47  45 S12       30.23F

$$

INZ062-063-066-070>080-084-089>092-182000-
SOUTH CENTRAL AND SOUTHEAST INDIANA

CITY           SKY/WX    TMP DP  RH WIND       PRES   REMARKS
BLOOMINGTON    SUNNY     69  43  38 SW9G20    30.22F
MADISON *+     SUNNY     70  36  28 S5        30.27F
SEYMOUR +      SUNNY     72  45  37 S12       30.23F

$$




USA.gov is the U.S. government's official web portal to all federal, state and local government web resources and services.